Weather History for Escanaba, MI

Change the Weather History Date:

Thursday, June 20, 2013

  Actual Average Record
Temperature  
Mean Temperature 59 °F -  
Max Temperature 68 °F 68 °F 87 °F (1988)
Min Temperature 50 °F 52 °F 37 °F (2003)
Degree Days  
Heating Degree Days 6    
Growing Degree Days 9 (Base 50)    
Moisture  
Dew Point 51 °F    
Average Humidity 67    
Maximum Humidity 82    
Minimum Humidity 59    
Precipitation  
Precipitation 0.00 in - - ()
Sea Level Pressure  
Sea Level Pressure 30.10 in    
Wind  
Wind Speed 6 mph (South)    
Max Wind Speed 12 mph    
Max Gust Speed 17 mph    
Visibility 10 miles    
Events Thunderstorm    
Averages and records for this station are not official NWS values.
T = Trace of Precipitation, MM = Missing Value Source: NWS Daily Summary

Daily Weather History Graph

Daily Weather History Graph

Search for Another Location

Airport:

Trip Planner

Search our weather history database for the weather conditions in past years. The results will help you decide how hot, cold, wet, or windy it might be!

Date:

Astronomy

Jun. 20, 2013 Rise Set
Actual Time 5:58 AM EDT 9:41 PM EDT
Civil Twilight 5:20 AM EDT 10:19 PM EDT
Nautical Twilight 4:28 AM EDT 11:11 PM EDT
Astronomical Twilight 3:18 AM EDT 12:22 AM EDT
Moon 6:37 PM EDT (6/20) 3:32 AM EDT (6/20)
Length of Visible Light 16h 59m
Length of Day
15h 42m
Waxing Gibbous, 89% of the Moon is Illuminated
Jun 20
Waxing Gibbous
Jun 23
Full
Jun 30
Last Quarter
Jul 8
New
Jul 15
First Quarter

Hourly Weather History & Observations

Time (EDT) Temp. Dew Point Humidity Pressure Visibility Wind Dir Wind Speed Gust Speed Precip Events Conditions
12:15 AM - - N/A% 30.07 in 10.0 mi SSW 10.4 mph - N/A   Clear
12:35 AM - - N/A% 30.07 in 10.0 mi SSW 10.4 mph 17.3 mph N/A   Clear
12:55 AM - - N/A% 30.08 in 10.0 mi SSW 6.9 mph - N/A   Clear
1:15 AM - - N/A% 30.08 in 10.0 mi SSW 6.9 mph - N/A   Clear
1:35 AM - - N/A% 30.08 in 10.0 mi WSW 3.5 mph - N/A   Clear
1:55 AM - - N/A% 30.07 in 10.0 mi WSW 4.6 mph - N/A   Clear
2:15 AM - - N/A% 30.08 in 10.0 mi Calm Calm - N/A   Clear
2:35 AM - - N/A% 30.08 in 10.0 mi Calm Calm - N/A   Clear
2:55 AM - - N/A% 30.07 in 10.0 mi WSW 3.5 mph - N/A   Clear
3:15 AM - - N/A% 30.08 in 10.0 mi WSW 5.8 mph - N/A   Clear
3:35 AM - - N/A% 30.08 in 10.0 mi WSW 3.5 mph - N/A   Clear
3:55 AM - - N/A% 30.08 in 10.0 mi WSW 3.5 mph - N/A   Clear
4:15 AM 53.6 °F 46.4 °F 77% 30.09 in 10.0 mi SW 4.6 mph - N/A   Clear
4:35 AM - - N/A% 30.09 in 10.0 mi SW 4.6 mph - N/A   Clear
4:55 AM - - N/A% 30.08 in 10.0 mi SW 3.5 mph - N/A   Clear
5:15 AM 53.6 °F 46.4 °F 77% 30.09 in 10.0 mi SSW 3.5 mph - N/A   Clear
5:35 AM - - N/A% 30.09 in 10.0 mi SW 3.5 mph - N/A   Clear
5:55 AM - - N/A% 30.09 in 10.0 mi SW 4.6 mph - N/A   Clear
6:15 AM 55.4 °F 46.4 °F 72% 30.10 in 10.0 mi Calm Calm - N/A   Clear
6:35 AM 51.8 °F 44.6 °F 76% 30.11 in 10.0 mi WNW 3.5 mph - N/A   Clear
6:55 AM 51.8 °F 44.6 °F 76% 30.11 in 10.0 mi Calm Calm - N/A   Clear
7:15 AM 50.0 °F 44.6 °F 82% 30.11 in 10.0 mi Calm Calm - N/A   Clear
7:35 AM - - N/A% 30.11 in 10.0 mi Calm Calm - N/A   Clear
7:55 AM 57.2 °F 48.2 °F 72% 30.12 in 10.0 mi SSW 3.5 mph - N/A   Clear
8:15 AM 60.8 °F 48.2 °F 63% 30.12 in 10.0 mi SW 3.5 mph - N/A   Clear
8:35 AM 60.8 °F 48.2 °F 63% 30.12 in 10.0 mi SSW 6.9 mph - N/A   Clear
8:55 AM - - N/A% 30.12 in 10.0 mi SSW 3.5 mph - N/A   Clear
9:15 AM 64.4 °F 50.0 °F 59% 30.13 in 10.0 mi South 5.8 mph - N/A   Clear
9:35 AM - - N/A% 30.12 in 10.0 mi South 5.8 mph - N/A   Clear
9:55 AM 66.2 °F 51.8 °F 60% 30.13 in 10.0 mi South 8.1 mph - N/A   Clear
10:15 AM 66.2 °F 51.8 °F 60% 30.13 in 10.0 mi South 9.2 mph - N/A   Clear
10:35 AM 66.2 °F 51.8 °F 60% 30.12 in 10.0 mi South 9.2 mph - N/A   Partly Cloudy
10:55 AM 66.2 °F 51.8 °F 60% 30.13 in 10.0 mi South 10.4 mph - N/A   Partly Cloudy
11:15 AM 66.2 °F 51.8 °F 60% 30.12 in 10.0 mi South 11.5 mph - N/A   Partly Cloudy
11:35 AM - - N/A% 30.12 in 10.0 mi SSW 11.5 mph - N/A Thunderstorm Thunderstorm
2:55 PM - - N/A% 30.12 in 10.0 mi SE 6.9 mph - N/A   Mostly Cloudy
3:15 PM 68.0 °F 53.6 °F 60% 30.12 in 10.0 mi SSE 6.9 mph - N/A   Scattered Clouds
3:35 PM - - N/A% 30.11 in 10.0 mi SE 9.2 mph - N/A   Partly Cloudy
3:55 PM 66.2 °F 51.8 °F 60% 30.12 in 10.0 mi ESE 6.9 mph - N/A   Scattered Clouds
4:15 PM - - N/A% 30.11 in 10.0 mi SE 8.1 mph - N/A   Mostly Cloudy
4:35 PM - - N/A% 30.11 in 10.0 mi SE 8.1 mph - N/A   Overcast
4:55 PM - - N/A% 30.11 in 10.0 mi SE 5.8 mph - N/A   Mostly Cloudy
5:15 PM - - N/A% 30.12 in 9.0 mi SE 3.5 mph - N/A   Overcast
5:35 PM 66.2 °F 53.6 °F 64% 30.11 in 10.0 mi ESE 5.8 mph - N/A   Overcast
5:55 PM 66.2 °F 53.6 °F 64% 30.10 in 10.0 mi ESE 5.8 mph - N/A   Overcast
6:15 PM 66.2 °F 53.6 °F 64% 30.09 in 10.0 mi SE 4.6 mph - N/A   Overcast
6:35 PM - - N/A% 30.09 in 10.0 mi ESE 4.6 mph - N/A   Scattered Clouds
6:55 PM 66.2 °F 53.6 °F 64% 30.09 in 10.0 mi SSE 4.6 mph - N/A   Scattered Clouds
7:15 PM - - N/A% 30.08 in 10.0 mi South 6.9 mph - N/A   Partly Cloudy
7:35 PM - - N/A% 30.09 in 10.0 mi SSE 4.6 mph - N/A   Clear
7:55 PM 66.2 °F 53.6 °F 64% 30.09 in 10.0 mi SSE 5.8 mph - N/A   Clear
8:15 PM 66.2 °F 53.6 °F 64% 30.09 in 10.0 mi South 3.5 mph - N/A   Clear
8:35 PM - - N/A% 30.09 in 10.0 mi Calm Calm - N/A   Scattered Clouds
8:55 PM - - N/A% 30.09 in 10.0 mi Calm Calm - N/A   Scattered Clouds
9:15 PM - - N/A% 30.09 in 10.0 mi ESE 4.6 mph - N/A   Clear
9:35 PM 64.4 °F 53.6 °F 68% 30.10 in 10.0 mi SE 3.5 mph - N/A   Partly Cloudy
9:55 PM - - N/A% 30.11 in 10.0 mi Calm Calm - N/A   Mostly Cloudy
10:15 PM - - N/A% 30.11 in 6.0 mi Calm Calm - N/A   Overcast
10:35 PM 62.6 °F 55.4 °F 77% 30.12 in 9.0 mi Calm Calm - N/A   Overcast
10:55 PM - - N/A% 30.12 in 10.0 mi NNE 3.5 mph - N/A   Overcast
11:15 PM 62.6 °F 55.4 °F 77% 30.13 in 10.0 mi North 5.8 mph - N/A   Overcast
11:35 PM - - N/A% 30.12 in 10.0 mi NNE 5.8 mph - N/A   Overcast
11:55 PM 62.6 °F 55.4 °F 77% 30.14 in 10.0 mi NNE 5.8 mph - N/A   Overcast